• Join FlightAware (Why Join?)
  • Login
  • US Flag 
11:22AM EDT


 

Airport Tracker/Info


-or-


 

Live Flight TrackerFlight Track Log ✈ UAL3776 ✈ 06-Apr-2013 ✈ KPVD - KIAD

Flight Track Log - Related Links

Times and Time Zones

All times are in EDT time to prevent confusion due to time zone crossing. See the UAL3776 flight status page for this flight to view local times or setup timezone preferences in your user account.

Time Position Orientation Groundspeed Altitude Reporting Facility
EDT Latitude Longitude Course Direction KTS MPH feet Rate Location/Type
06:59PM 41.7083 -71.4447 241° Southwest 166 191 1,400  Level Boston Center
07:00PM 41.7006 -71.5031 260° West 166 191 4,200 2,580 Climbing Boston Center
07:01PM 41.7197 -71.5639 293° West 185 213 6,600 3,180 Climbing Boston Center
07:02PM 41.7786 -71.6383 317° Northwest 228 262 10,500 3,120 Climbing Boston Center
07:03PM 41.8125 -71.7269 297° West 256 295 13,000 2,280 Climbing Boston Center
07:04PM 41.8464 -71.8214 296° West 296 341 15,100 2,280 Climbing Boston Center
07:05PM 41.7234 -71.4297 241° Southwest  Level Estimated
07:05PM 41.8867 -71.9408 294° West 322 371 17,600  Level Boston Center
07:06PM 41.9286 -72.0522 297° West 333 383 19,600 1,860 Climbing Boston Center
07:07PM 41.9353 -72.1778 274° West 333 383 21,500 1,860 Climbing Boston Center
07:08PM 41.9397 -72.3089 273° West 344 396 23,400 1,680 Climbing Boston Center
07:09PM 41.9439 -72.4428 272° West 355 409 24,900 1,620 Climbing Boston Center
07:10PM 41.9461 -72.5797 271° West 362 417 26,600 1,560 Climbing Boston Center
07:11PM 41.9519 -72.7025 274° West 367 422 28,100 1,320 Climbing Boston Center
07:12PM 41.8994 -72.8222 240° Southwest 352 405 29,300 1,140 Climbing Boston Center
07:13PM 41.8303 -72.9361 231° Southwest 371 427 30,500 1,140 Climbing Boston Center
07:14PM 41.7589 -73.0578 232° Southwest 400 460 31,700 720 Climbing Boston Center
07:15PM 41.6872 -73.1794 232° Southwest 413 475 32,000 120 Climbing Boston Center
07:16PM 41.6133 -73.3064 232° Southwest 423 487 32,000  Level Boston Center
07:18PM 41.5031 -73.4969 232° Southwest 435 501 32,000  Level New York Center
07:19PM 41.4269 -73.6294 233° Southwest 449 517 32,000  Level New York Center
07:20PM 41.3467 -73.7586 230° Southwest 456 525 32,000  Level New York Center
07:21PM 41.2764 -73.8933 235° Southwest 456 525 32,000 -300 Level New York Center
07:22PM 41.2061 -74.0281 235° Southwest 456 525 31,500 -780 Descending New York Center
07:23PM 41.1336 -74.1650 235° Southwest 451 519 30,500 -1,020 Descending New York Center
07:24PM 41.0611 -74.2933 233° Southwest 451 519 29,500 -1,020 Descending New York Center
07:25PM 40.9947 -74.4247 236° Southwest 445 512 28,500 -780 Descending New York Center
07:26PM 40.9261 -74.5528 235° Southwest 438 504 28,000 -300 Descending New York Center
07:27PM 40.8717 -74.6897 242° Southwest 428 493 28,000  Level New York Center
07:28PM 40.8150 -74.8264 241° Southwest 428 493 28,000  Level New York Center
07:29PM 40.7539 -74.9597 239° Southwest 428 493 28,000 -60 Level New York Center
07:30PM 40.6908 -75.0953 239° Southwest 428 493 27,900 -120 Descending New York Center
07:31PM 40.6275 -75.2281 238° Southwest 433 498 27,800 -600 Descending New York Center
07:32PM 40.5661 -75.3608 239° Southwest 433 498 26,800 -1,500 Descending New York Center
07:33PM 40.4981 -75.5036 238° Southwest 433 498 24,800 -1,920 Descending New York Center
07:34PM 40.4386 -75.6303 238° Southwest 428 493 23,000 -1,920 Descending New York Center
07:35PM 40.3769 -75.7594 238° Southwest 423 487 21,100 -1,620 Descending New York Center
07:36PM 40.3172 -75.8886 239° Southwest 418 481 19,900 -840 Descending New York Center
07:37PM 40.2558 -76.0064 236° Southwest 426 490 19,500 -840 Descending New York Center
07:39PM 40.1333 -76.2500 237° Southwest 402 463 17,500 -900 Descending Potomac TRACON
07:40PM 40.0833 -76.3833 244° Southwest 389 448 17,000 -780 Descending Potomac TRACON
07:41PM 40.0167 -76.5000 233° Southwest 403 464 16,000 -1,080 Descending Potomac TRACON
07:42PM 39.9667 -76.6167 241° Southwest 375 432 15,000 -480 Descending Potomac TRACON
07:43PM 39.9167 -76.7333 241° Southwest 381 438 15,000  Level Potomac TRACON
07:44PM 39.8667 -76.8333 237° Southwest 388 447 15,000 -1,020 Level Potomac TRACON
07:45PM 39.8000 -76.9667 237° Southwest 385 443 13,100 -1,440 Descending Potomac TRACON
07:46PM 39.7500 -77.0833 241° Southwest 372 428 12,000 -1,080 Descending Potomac TRACON
07:47PM 39.7000 -77.2000 241° Southwest 372 428 11,000 -1,020 Descending Potomac TRACON
07:48PM 39.6333 -77.2833 224° Southwest 376 433 10,000 -540 Descending Potomac TRACON
07:49PM 39.5500 -77.3500 212° Southwest 380 437 10,000 -180 Level Potomac TRACON
07:50PM 39.4500 -77.4000 201° Southwest 305 351 9,700 -900 Descending Potomac TRACON
07:51PM 39.3833 -77.4500 210° Southwest 275 316 8,200 -1,440 Descending Potomac TRACON
07:52PM 39.3167 -77.4500 180° South 260 299 6,900 -1,140 Descending Potomac TRACON
07:53PM 39.2333 -77.4500 180° South 265 305 6,000 -1,320 Descending Potomac TRACON
07:54PM 39.1667 -77.4500 180° South 258 297 4,400 -1,560 Descending Potomac TRACON
07:55PM 39.1000 -77.4500 180° South 230 265 2,900 -1,200 Descending Potomac TRACON
07:56PM 39.0500 -77.4667 195° South 178 205 1,900 -900 Descending Potomac TRACON
07:57PM 39.0167 -77.4667 180° South 129 148 1,100 -840 Descending Potomac TRACON
07:59PM 38.9474 -77.4599 180° South  Level Estimated
08:06PM 38.9474 -77.4599 349° North  Level Estimated
08:07PM 38.9474 -77.4599 349° North  Level Estimated
08:08PM 38.9474 -77.4599 349° North  Level Estimated
08:09PM 38.9474 -77.4599 349° North  Level Estimated